HULIANWANG DIGUI-83

Last updated on Fri Oct 17 2025 00:02:07 GMT+0000 (Coordinated Universal Time)

1 65818U 25220B 25286.81493720 .00000038 00000+0 26647-4 0 9995 2 65818 86.5004 127.5040 0003228 192.1088 167.9992 13.64769059 2236
UTC large
Height (km)
Speed (km/s)
/
Latitude / Longitude
Inclination (degrees)
Orbital Period (minutes)
Azimuth
Elevation
Range (km)
Doppler Factor

Next 0 passes for location: London (51.5072 / 0.1276)

Sorry there are no passes over London.